Weather History for East Milton, MA

Change the Weather History Date:

Thursday, January 16, 2014

  Actual Average (KBOS) Record (KBOS)
Temperature  
Mean Temperature 36 °F 29 °F  
Max Temperature 39 °F 35 °F 64 °F (1995)
Min Temperature 34 °F 22 °F -7 °F (2004)
Degree Days  
Heating Degree Days 28 36  
Month to date heating degree days 572  
Since 1 July heating degree days 2566  
Cooling Degree Days 0 0  
Month to date cooling degree days 0  
Year to date cooling degree days 0  
Moisture  
Dew Point 36 °F    
Average Humidity 98    
Maximum Humidity 100    
Minimum Humidity 96    
Precipitation  
Precipitation 0.00 in 0.11 in 1.05 in (1906)
Month to date precipitation 1.77  
Year to date precipitation 1.77  
Sea Level Pressure  
Sea Level Pressure 29.90 in    
Wind  
Wind Speed 6 mph (North)    
Max Wind Speed 9 mph    
Max Gust Speed -    
T = Trace of Precipitation, MM = Missing Value Source: NWS Daily Summary

Daily Weather History Graph

Daily Weather History Graph

Search for Another Location

Airport:

Trip Planner

Search our weather history database for the weather conditions in past years. The results will help you decide how hot, cold, wet, or windy it might be!

Date:

Astronomy

Jan. 16, 2014 Rise Set
Actual Time 7:10 AM EST 4:38 PM EST
Civil Twilight 6:39 AM EST 5:09 PM EST
Nautical Twilight 6:04 AM EST 5:44 PM EST
Astronomical Twilight 5:31 AM EST 6:17 PM EST
Moon 5:29 PM EST (1/16) 7:00 AM EST (1/16)
Length of Visible Light 10h 30m
Length of Day
9h 28m
Full, 100% of the Moon is Illuminated
Jan 16
Full
Jan 24
Last Quarter
Jan 30
New
Feb 6
First Quarter
Feb 14
Full

Hourly Weather History & Observations

Time (EST) Temp. Windchill Dew Point Humidity Pressure Visibility Wind Dir Wind Speed Gust Speed Precip Events Conditions
12:54 AM 39.0 °F 34.8 °F 37.9 °F 96% 29.90 in - West 5.8 mph - N/A   Unknown
1:54 AM 35.1 °F 29.3 °F 35.1 °F 100% 29.91 in - West 6.9 mph - N/A   Unknown
2:54 AM 37.9 °F 32.7 °F 37.0 °F 97% 29.89 in - West 6.9 mph - N/A   Unknown
3:54 AM 36.0 °F 29.6 °F 35.1 °F 97% 29.89 in - NW 8.1 mph - N/A   Unknown
4:54 AM 36.0 °F 29.0 °F 36.0 °F 100% 29.87 in - NNW 9.2 mph - N/A   Unknown
5:54 AM 36.0 °F 29.0 °F 36.0 °F 100% 29.87 in - North 9.2 mph - N/A   Unknown
6:54 AM 35.1 °F 28.6 °F 34.0 °F 96% 29.89 in - North 8.1 mph - N/A   Unknown
7:54 AM 35.1 °F 28.6 °F 35.1 °F 100% 29.88 in - ENE 8.1 mph - N/A   Unknown
8:54 AM 37.9 °F 33.5 °F 37.0 °F 97% 29.88 in - East 5.8 mph - N/A   Unknown
9:54 AM 34.0 °F 26.6 °F 34.0 °F 100% 29.91 in - NW 9.2 mph - N/A   Unknown
10:54 AM 37.0 °F 32.4 °F 36.0 °F 96% 29.93 in - NNW 5.8 mph - N/A   Unknown
11:54 AM 37.0 °F 33.3 °F 36.0 °F 96% 29.91 in - NNE 4.6 mph - N/A   Unknown
12:54 PM 37.0 °F 33.3 °F 36.0 °F 96% 29.88 in - Variable 4.6 mph - N/A   Unknown
1:54 PM 36.0 °F 30.3 °F 36.0 °F 100% 29.85 in - NE 6.9 mph - N/A   Unknown
2:54 PM 36.0 °F 33.3 °F 36.0 °F 100% 29.89 in - Variable 3.5 mph - N/A   Unknown
3:54 PM 36.0 °F 30.3 °F 36.0 °F 100% 29.88 in - ENE 6.9 mph - N/A   Unknown
4:54 PM 36.0 °F 31.1 °F 36.0 °F 100% 29.89 in - ENE 5.8 mph - N/A   Unknown
5:54 PM 36.0 °F 32.1 °F 36.0 °F 100% 29.89 in - NE 4.6 mph - N/A   Unknown
6:54 PM 37.0 °F - 36.0 °F 96% 29.92 in - Calm Calm - N/A   Unknown
7:54 PM 37.0 °F 33.3 °F 36.0 °F 96% 29.92 in - ENE 4.6 mph - N/A   Unknown
8:54 PM 37.0 °F - 36.0 °F 96% 29.93 in - Calm Calm - N/A   Unknown
9:54 PM 37.0 °F - 37.0 °F 100% 29.94 in - Calm Calm - N/A   Unknown
10:54 PM 37.0 °F - 37.0 °F 100% 29.94 in - Calm Calm - N/A   Unknown
11:54 PM 37.0 °F 34.5 °F 36.0 °F 96% 29.94 in - SSW 3.5 mph - N/A   Unknown